Regional Weather Roundup
Issued by NWS

Home | Current Version | Previous Version | Graphics & Text | Print | Product List | Glossary On
Versions: 1 2 3 4 5 6 7 8 9 10 11 12 13 14 15 16 17 18 19 20 21 22 23 24 25 26 27 28 29 30 31 32 33 34 35 36 37 38 39 40 41 42 43 44 45 46 47 48 49 50
000
ASUS43 KLMK 021102
RWRKY
KENTUCKY REGIONAL WEATHER ROUNDUP
NATIONAL WEATHER SERVICE LOUISVILLE KY
700 AM EDT SUN AUG 02 2015

NOTE "FAIR" INDICATES FEW OR NO CLOUDS BELOW 12,000 FEET
WITH NO SIGNIFICANT WEATHER AND/OR OBSTRUCTIONS TO VISIBILITY.

KYZ001>023-026-027-061>063-070>075-021200-
WESTERN AND SOUTH CENTRAL KENTUCKY

CITY           SKY/WX    TMP DP  RH WIND       PRES   REMARKS
PADUCAH        PTCLDY    67  65  93 SW3       29.96R
HENDERSON      PTCLDY    63  59  88 CALM      29.96S
OWENSBORO      MOCLDY    67  64  90 CALM      29.98S
HOPKINSVILLE   NOT AVBL
BOWLING GREEN  CLOUDY    61  59  93 CALM      30.00R FOG
GLASGOW        NOT AVBL
$$

KYZ024-025-028>034-038-045-046-053-021200-
NORTH CENTRAL KENTUCKY

CITY           SKY/WX    TMP DP  RH WIND       PRES   REMARKS
LOUISVILLE/SDF MOCLDY    68  60  75 CALM      29.98S
LOUISVILLE/LOU PTCLDY    65  60  84 CALM      29.99S
FORT KNOX      NOT AVBL
$$

KYZ035>037-039>044-047>052-055>060-089>105-021200-
NORTHEAST KENTUCKY

CITY           SKY/WX    TMP DP  RH WIND       PRES   REMARKS
LEXINGTON      MOCLDY    64  59  83 CALM      30.01S
COVINGTON      PTCLDY    61  59  93 CALM      29.98S
FRANKFORT      MOCLDY    60  58  92 CALM      30.00R
$$

KYZ054-064>069-076>088-106>120-021200-
SOUTHEAST KENTUCKY

CITY           SKY/WX    TMP DP  RH WIND       PRES   REMARKS
JACKSON        PTCLDY    66  59  78 CALM      30.02R
LONDON         CLEAR     60  55  83 CALM      30.03R HAZE
SOMERSET       NOT AVBL
MIDDLESBORO    NOT AVBL
MONTICELLO     FOG       56  56 100 CALM      30.05R VSB 3/4
$$



USA.gov is the U.S. government's official web portal to all federal, state and local government web resources and services.